TIANWANG 1B (TW-1B)
1 40927U 15051C   19216.41485399  .00006957  00000-0  10593-3 0  9994
2 40927  97.1351 261.8185 0007529 198.0336 287.9346 15.54795712217278
TIANWANG 1A (TW-1A)
1 40928U 15051D   19216.44899205  .00001740  00000-0  44201-4 0  9992
2 40928  97.1431 246.7162 0009376 263.1182 204.3991 15.40962574216376
LAPAN A2
1 40931U 15052B   19215.07574832 +.00000640 +00000-0 +41238-7 0  9999
2 40931 005.9990 092.8905 0012958 075.9377 284.2056 14.76610632207986
LQSAT
1 40958U 15057A   19215.75351530 -.00000016 +00000-0 +50892-5 0  9998
2 40958 097.8962 283.6999 0019625 093.6404 266.7049 14.73085016205594
CHUBUSAT 2
1 41338U 16012B   19215.40301341 +.00000207 +00000-0 +92860-5 0  9992
2 41338 031.0019 214.2680 0013811 196.0825 163.9373 15.00162734189787
CHUBUSAT 3
1 41339U 16012C   19216.36509933  .00000192  00000-0  81204-5 0  9999
2 41339  31.0094 206.1900 0013614 213.8649 146.1119 15.00337693189924
OUFTI-1
1 41458U 16025C   19215.83741196 +.00000551 +00000-0 +32411-4 0  9999
2 41458 098.1022 305.0299 0165878 201.4355 157.9870 15.05878279179511
E-STAR-2
1 41459U 16025D   19216.19719672  .00001713  00000-0  91320-4 0  9999
2 41459  98.1021 305.0429 0167516 201.8622 157.5424 15.05514752179545
AAUSAT 4
1 41460U 16025E   19216.44665392  .00001918  00000-0  99530-4 0  9996
2 41460  98.0980 306.6631 0157536 193.0884 166.6196 15.07427223179719
NUSAT 1
1 41557U 16033B   19215.90793484 +.00000794 +00000-0 +32393-4 0  9991
2 41557 097.4179 303.1407 0015143 130.4521 229.8041 15.27279778177140
BEESAT 4
1 41619U 16040W   19215.89580969 +.00000784 +00000-0 +36055-4 0  9996
2 41619 097.3645 277.2532 0010320 213.7830 146.2751 15.23198458160891
PRATHAM
1 41783U 16059A   19215.69662205 +.00000038 +00000-0 +16662-4 0  9994
2 41783 098.0643 274.2552 0032423 238.0562 121.7486 14.63002066152276
ALSAT 1N
1 41789U 16059G   19216.53442234  .00000037  00000-0  16182-4 0  9998
2 41789  98.0673 277.1716 0027429 224.6380 135.2619 14.64252842152502
NAYIF 1
1 42017U 17008BX  19215.87404698 +.00000868 +00000-0 +36970-4 0  9995
2 42017 097.4005 282.4876 0006601 022.3663 337.7862 15.25607753136965
MAX VALIER SAT
1 42778U 17036P   19215.74638411  .00000575  00000-0  28109-4 0  9998
2 42778  97.3512 272.3913 0013982  66.6309 293.6396 15.22066810117241
